Weather History for Mayo, YT

Change the Weather History Date:

Monday, February 10, 2014

  Actual Average Record
Temperature  
Mean Temperature -34 °F -  
Max Temperature -23 °F 14 °F 41 °F (2012)
Min Temperature -45 °F -9 °F -45 °F (2014)
Degree Days  
Heating Degree Days 99    
Moisture  
Dew Point -44 °F    
Average Humidity 66    
Maximum Humidity 75    
Minimum Humidity 47    
Precipitation  
Precipitation 0.00 in 0.02 in - ()
Sea Level Pressure  
Sea Level Pressure 30.59 in    
Wind  
Wind Speed 0 mph ()    
Max Wind Speed 4 mph    
Max Gust Speed -    
Visibility 19.9 miles    
Events Fog    
Averages and records for this station are not official NWS values.
T = Trace of Precipitation, MM = Missing Value Source: Averaged Metar Reports

Daily Weather History Graph

Daily Weather History Graph

Search for Another Location

Airport:

Trip Planner

Search our weather history database for the weather conditions in past years. The results will help you decide how hot, cold, wet, or windy it might be!

Date:

Astronomy

Feb. 10, 2014 Rise Set
Actual Time 9:11 AM PST 5:24 PM PST
Civil Twilight 8:19 AM PST 6:16 PM PST
Nautical Twilight 7:24 AM PST 7:12 PM PST
Astronomical Twilight 6:30 AM PST 8:06 PM PST
Moon 1:20 PM PST (2/10) 6:51 AM PST (2/10)
Length of Visible Light 9h 56m
Length of Day
8h 13m
Waxing Gibbous, 85% of the Moon is Illuminated
Feb 10
Waxing Gibbous
Feb 14
Full
Feb 22
Last Quarter
Mar 1
New
Mar 8
First Quarter

Hourly Weather History & Observations

Time (PST) Temp. Windchill Dew Point Humidity Pressure Visibility Wind Dir Wind Speed Gust Speed Precip Events Conditions
12:00 AM -34.6 °F - -41.8 °F 68% 30.62 in 20.0 mi Calm Calm - N/A   Clear
1:00 AM -36.4 °F - -43.6 °F 67% 30.62 in 20.0 mi Calm Calm - N/A   Clear
2:00 AM -36.4 °F - -43.6 °F 67% 30.63 in 20.0 mi Calm Calm - N/A   Clear
3:00 AM -40.0 °F - -45.4 °F 74% 30.64 in 20.0 mi Calm Calm - N/A   Clear
4:00 AM -39 °F - -45 °F 53% 30.64 in 19 mi Calm Calm - -  
4:00 AM -38.2 °F - -45.4 °F 67% 30.64 in 20.0 mi Calm Calm - N/A   Clear
5:00 AM -41.8 °F - -47.2 °F 74% 30.64 in 20.0 mi Calm Calm - N/A   Clear
6:00 AM -41.8 °F - -49.0 °F 67% 30.64 in 20.0 mi Calm Calm - N/A   Clear
7:00 AM -41.8 °F - -49.0 °F 67% 30.63 in 20.0 mi Calm Calm - N/A   Clear
8:00 AM -43.6 °F - -50.8 °F 67% 30.65 in 20.0 mi NE 2.3 mph - N/A   Clear
9:00 AM -43.6 °F - -50.8 °F 67% 30.65 in 20.0 mi Variable 2.3 mph - N/A Fog Clear
10:00 AM -43 °F - -50 °F 47% 30.65 in 19 mi North 1.2 mph - -  
10:00 AM -43.6 °F -57.7 °F -50.8 °F 67% 30.65 in 20.0 mi South 3.5 mph - N/A Fog Partly Cloudy
11:00 AM -41.8 °F - -49.0 °F 67% 30.65 in 20.0 mi Variable 2.3 mph - N/A Fog Partly Cloudy
12:00 PM -34.6 °F - -41.8 °F 68% 30.62 in 20.0 mi Calm Calm - N/A Fog Clear
1:00 PM -34.6 °F - -40.0 °F 75% 30.61 in 20.0 mi SE 2.3 mph - N/A   Clear
2:00 PM -27.4 °F - -34.6 °F 69% 30.57 in 20.0 mi Calm Calm - N/A   Clear
3:00 PM -25.6 °F - -32.8 °F 69% 30.56 in 20.0 mi Calm Calm - N/A   Clear
4:00 PM -26 °F - -32 °F 57% 30.53 in 19 mi North 1.2 mph - -  
4:00 PM -25.6 °F - -32.8 °F 69% 30.53 in 20.0 mi Calm Calm - N/A   Clear
5:00 PM -27.4 °F - -34.6 °F 69% 30.52 in 20.0 mi Calm Calm - N/A   Clear
6:00 PM -32.8 °F - -38.2 °F 75% 30.52 in 20.0 mi Calm Calm - N/A   Clear
7:00 PM -34.6 °F -47.4 °F -41.8 °F 68% 30.52 in 20.0 mi West 3.5 mph - N/A   Clear
8:00 PM -36.4 °F - -43.6 °F 67% 30.51 in 20.0 mi Calm Calm - N/A   Clear
9:00 PM -38.2 °F - -45.4 °F 67% 30.51 in 20.0 mi Calm Calm - N/A   Clear
10:00 PM -41 °F - -48 °F 50% 30.51 in 19 mi North 1.2 mph - -  
10:00 PM -40.0 °F - -47.2 °F 67% 30.50 in 20.0 mi Calm Calm - N/A   Clear
11:00 PM -41.8 °F - -49.0 °F 67% 30.49 in 20.0 mi Calm Calm - N/A   Clear